Home   Weather   Willich   Past weeks

Flag for Germany Past Weather in Willich, North Rhine-Westphalia, Germany — Yesterday and Last 2 Weeks

Now
63 °F

Sprinkles. Partly cloudy.


Feels Like: 63 °F
Forecast: 58 / 66 °F
Wind: 5 mph from Southwest

Location: Duesseldorf

Current Time: Jul 23, 2017 at 5:06:42 am

Latest Report: Jul 23, 2017 at 4:20 am


Visibility: N/A

Pressure: 29.86 "Hg

Humidity: 94%

Dew Point: 61 °F

Location of WillichLocation

Past Weather in Willich — Graph

°F

Willich Temperature Yesterday

Maximum temperature yesterday: 82 °F (at 5:20 pm)
Minimum temperature yesterday: 64 °F (at 6:50 am)
Average temperature yesterday: 73 °F

High & Low Weather Summary for the Past Weeks

 TemperatureHumidityPressure
High90 °F (Jul 19, 1:50 pm)100% (Jul 8, 3:50 am)30.24 "Hg (Jul 8, 3:50 am)
Low46 °F (Jul 13, 4:20 am)34% (Jul 10, 2:50 pm)29.68 "Hg (Jul 12, 12:58 pm)
Average68 °F68%29.97 "Hg
* Reported Jul 8 2:20 am — Jul 23 2:50 am, Willich. Weather by CustomWeather, © 2017

Note: Actual official high and low records may vary slightly from our data, if they occured in-between our weather recording intervals... More about our weather records

Advertising

Willich Weather History for the Previous 24 Hours

Scroll right to see more
 ConditionsComfort  
Time TempWeatherWind HumidityBarometerVisibility
2:50 am
Sun, Jul 23
63 °FPartly cloudy.3 mph94%29.86 "HgN/A
2:20 am63 °FPartly cloudy.1 mph94%29.86 "HgN/A
1:50 am63 °FSprinkles. Partly cloudy.3 mph94%29.86 "HgN/A
1:32 am63 °FSprinkles. Partly cloudy.2 mph94%29.89 "HgN/A
1:20 am63 °FLots of rain. Partly cloudy.5 mph94%29.89 "Hg3 mi
1:01 am63 °FRain showers. Mostly cloudy.5 mph94%29.89 "Hg5 mi
12:50 am64 °FSprinkles. Partly cloudy.6 mph83%29.89 "HgN/A
12:20 am64 °FSprinkles. Partly cloudy.6 mph83%29.89 "HgN/A
11:50 pm
Sat, Jul 22
64 °FSprinkles. Passing clouds.10 mph83%29.89 "HgN/A
11:20 pm68 °FScattered showers. Passing clouds.13 mph73%29.89 "HgN/A
10:50 pm68 °FPassing clouds.16 mph69%29.89 "HgN/A
10:20 pm72 °FScattered showers. Passing clouds.10 mph61%29.86 "HgN/A
9:50 pm73 °FPassing clouds.5 mph53%29.86 "HgN/A
9:20 pm73 °FScattered clouds.2 mph53%29.83 "HgN/A
8:50 pm75 °FBroken clouds.5 mph50%29.83 "HgN/A
8:20 pm77 °FBroken clouds.9 mph47%29.86 "HgN/A
7:50 pm77 °FScattered clouds.12 mph47%29.83 "HgN/A
7:20 pm79 °FSunny.10 mph42%29.83 "Hg10 mi
6:50 pm79 °FSunny.13 mph42%29.83 "Hg10 mi
6:20 pm81 °FSunny.13 mph39%29.83 "Hg10 mi
5:50 pm81 °FScattered clouds.13 mph39%29.83 "HgN/A
5:20 pm82 °FScattered clouds.10 mph40%29.83 "HgN/A
4:50 pm81 °FScattered clouds.5 mph45%29.83 "HgN/A
4:20 pm81 °FSunny.3 mph45%29.83 "Hg10 mi
3:50 pm81 °FPassing clouds.9 mph48%29.83 "HgN/A
3:20 pm81 °FPassing clouds.10 mph54%29.86 "HgN/A
3:03 pm81 °FSunny.12 mph51%29.86 "Hg10 mi
2:50 pm81 °FPassing clouds.6 mph45%29.86 "HgN/A
2:20 pm79 °FScattered clouds.7 mph48%29.86 "HgN/A
1:50 pm79 °FScattered clouds.14 mph51%29.86 "HgN/A
1:20 pm79 °FScattered showers. Scattered clouds.7 mph48%29.86 "HgN/A
12:50 pm77 °FScattered clouds.8 mph47%29.86 "HgN/A
12:20 pm77 °FScattered clouds.12 mph51%29.89 "HgN/A
11:50 am77 °FPassing clouds.8 mph51%29.86 "HgN/A
11:20 am75 °FScattered clouds.12 mph50%29.89 "HgN/A
10:50 am75 °FPassing clouds.8 mph57%29.86 "HgN/A
10:20 am75 °FPassing clouds.8 mph57%29.89 "HgN/A
9:50 am73 °FPassing clouds.8 mph61%29.89 "HgN/A
9:20 am72 °FPassing clouds.7 mph61%29.86 "HgN/A
8:50 am72 °FPassing clouds.7 mph69%29.86 "HgN/A
8:20 am70 °FScattered clouds.9 mph73%29.86 "HgN/A
7:50 am68 °FPassing clouds.8 mph78%29.86 "HgN/A
7:20 am66 °FSunny.7 mph83%29.86 "Hg10 mi
6:50 am64 °FSunny.7 mph88%29.86 "Hg10 mi
6:20 am66 °FPassing clouds.9 mph83%29.86 "HgN/A
5:20 am66 °FPassing clouds.10 mph83%29.83 "HgN/A
Weather by CustomWeather, © 2017

See weather overviewHow to use our weather pages